www.pogodaiklimat.ru

Погода и климат >> Архив погоды >> Россия >> Красноярский край >> Караул


ПОГОДА в Карауле

  • Прогноз погоды в Карауле
  • Монитор погоды в Карауле

АРХИВ ПОГОДЫ в Карауле

Время (UTC), дата Ветер
(напр.,м/с)
 
Видим.   Явления Облачность Т
(С)
Тd
(С)
f
(%)
Тe
(С)
Тes
(С)
Комфортность P
(гПа)
Po
(гПа)
Тmin
(С)
Tmax
(С)
R
(мм)
R24
(мм)
S
(см)
00 17.01 В 3 4000 м слаб. снег 10/0
[Ac trans Cs]
-24.0 -26.5 80 -32 -32 опасность
обморожения
1008.4 1004.4 -24.2 0.5 28
03 17.01 штиль 0 20 км {снег} 6/0
[Ac trans Ci fib]
-25.2 -27.7 80 -25 -25 1009.6 1005.6 -25.4
06 17.01 Ю 1 10 км слаб. снег 10/0
[Ac trans Cs]
-26.5 -29.0 79 -30 -30 1011.0 1007.0
09 17.01 Ю 2 4000 м слаб. снег 10/0
[Ac trans Cs]
-23.8 -26.3 80 -30 -30 1012.5 1008.5
12 17.01 Ю 4 10 км слаб. снег 10/0 2000 м
[Ac trans Cs]
-23.7 -26.1 81 -33 -33 опасность
обморожения
1012.7 1008.7 -23.6 0.4
15 17.01 В 7 10 км слаб. снег {метель} 10/0 2000 м
[Ac trans Cs]
-22.0 -24.5 80 -34 -34 опасность
обморожения
1011.3 1007.4
18 17.01 ЮВ 9-13
{14}
2000 м снег {метель} 10/0
[As op]
-17.2 -19.8 80 -29 -29 1005.2 1001.4
21 17.01 Ю 13-18
{18}
2000 м снег {метель} 10/0 2000 м
[As op]
-14.1 -16.1 85 -27 -27 999.5 995.7
00 18.01 Ю 11-16
{18}
4000 м слаб. снег {метель} 10/0
[As op]
-13.0 -15.0 85 -25 -25 997.1 993.3 -23.9 3 26
03 18.01 Ю 13-17
{18}
2000 м снег {метель} 10/0 2000 м
[As op]
-9.5 -11.6 85 -21 -21 994.1 990.4
06 18.01 Ю 14-18
{19}
2000 м снег {метель} 10/0
[As op]
-9.0 -10.6 88 -21 -21 992.2 988.5
09 18.01 Ю 14-18
{19}
2000 м снег {метель} 10/0
[As op]
-8.8 -10.7 86 -21 -21 989.8 986.1
12 18.01 Ю 13-16
{18}
4000 м слаб. снег {метель} 10/0
[As op]
-9.1 -11.1 85 -21 -21 989.6 985.9 -8.8 2
15 18.01 ЮЗ 12-14
{16}
4000 м метель {снег} 10/0
[Ac As]
-9.2 -11.7 82 -21 -21 989.6 985.9
18 18.01 ЮЗ 9-12
{14}
20 км позёмок {снег} 9/0
[Ac trans]
-10.1 -12.1 85 -20 -20 991.2 987.5
21 18.01 ЮЗ 7
{12}
2000 м слаб. ливневой снег {метель} 10/10 600 м
[Cb cap]
-11.0 -13.8 80 -20 -20 992.0 988.3
00 19.01 Ю 7
{10}
20 км позёмок {ливн. осадки} 9/0
[Ac trans]
-10.6 -12.6 85 -20 -20 991.9 988.2 -11.2 0.3 32
03 19.01 Ю 6 4000 м слаб. снег {метель} 10/10 600 м
[Sc]
-11.6 -12.0 97 -20 -20 990.8 987.1 -11.9
06 19.01 Ю 7-10
{10}
2000 м снег {метель} 10/0
[As op]
-10.9 -12.9 85 -20 -20 989.5 985.8
09 19.01 Ю 6
{10}
2000 м снег {метель} 10/0
[As op]
-11.1 -13.1 85 -20 -20 987.9 984.2
12 19.01 Ю 4 2000 м снег {метель} 10/0
[As op]
-11.9 -13.9 85 -19 -19 987.7 984.0 -10.6 0.7
15 19.01 ЮВ 3 20 км {снег} 8/0
[Ac trans]
-13.0 -15.7 80 -19 -19 990.3 986.4
18 19.01 ЮВ 4 20 км {снег} 6/0
[Ac trans]
-13.7 -15.7 85 -21 -21 990.8 987.0
21 19.01 ЮВ 4 20 км 6/0
[Ac trans]
-14.8 -16.8 85 -23 -23 992.0 988.2
00 20.01 Ю 4 20 км 5/0
[Ac trans]
-18.1 -20.0 85 -27 -27 994.0 990.2 -18.2 0.0 32
03 20.01 Ю 4 20 км 6/0
[Ac trans]
-25.5 -28.0 79 -36 -36 опасность
обморожения
995.8 991.9
06 20.01 Ю 2 50 км 3/0
[Ac trans]
-29.1 -32.2 74 -36 -36 опасность
обморожения
997.2 993.2
09 20.01 Ю 4 50 км 3/0
[Ac trans]
-30.7 -33.6 76 -42 -42 опасность
обморожения
999.4 995.4
12 20.01 З 4 20 км 4/0
[Ac trans]
-28.7 -31.2 79 -40 -40 опасность
обморожения
1002.9 998.9 -25.7
15 20.01 З 4 20 км 4/0
[Ac trans]
-28.0 -30.4 80 -39 -39 опасность
обморожения
1005.9 1001.9
18 20.01 З 3 20 км 4/0
[Ac trans]
-27.2 -29.6 80 -36 -36 опасность
обморожения
1008.7 1004.7
21 20.01 Ю 3 10 км слаб. снег 10/0
[Ac trans Cs]
-24.8 -27.3 80 -33 -33 опасность
обморожения
1011.3 1007.3
00 21.01 Ю 3 20 км {снег} 10/0
[Ac trans Cs]
-24.2 -26.6 80 -33 -33 опасность
обморожения
1013.1 1009.1 -28.9 0.0 32
03 21.01 ЮВ 5 4000 м слаб. снег 10/0
[As op]
-23.0 -25.5 80 -34 -34 опасность
обморожения
1013.6 1009.6
06 21.01 Ю 5 4000 м слаб. снег {метель} 10/0
[As op]
-21.4 -23.9 80 -32 -32 опасность
обморожения
1014.4 1010.5
09 21.01 Ю 6 20 км позёмок {снег} 10/10 300 м
[Sc]
-20.2 -22.8 80 -31 -31 опасность
обморожения
1016.2 1012.3
12 21.01 Ю 5 20 км {снег, метель} 10/6 300 м
[Sc Ac As]
-21.0 -23.5 80 -31 -31 опасность
обморожения
1017.7 1013.8 -20.2 0.3
15 21.01 Ю 5 20 км 9/3 300 м
[Sc Ac trans]
-20.6 -23.9 75 -31 -31 опасность
обморожения
1018.3 1014.4
18 21.01 В 8-11
{12}
20 км позёмок 10/0
[Cs]
-24.4 -27.6 75 -38 -38 опасность
обморожения
1017.2 1013.2
21 21.01 В 8-11
{12}
20 км позёмок 10/0
[Cs]
-24.4 -27.6 75 -38 -38 опасность
обморожения
1017.2 1013.2
00 22.01 В 7-10
{11}
20 км позёмок 10/0
[Cs]
-19.2 -22.5 75 -31 -31 опасность
обморожения
1015.0 1011.1 -24.6 33
03 22.01 В 9-13
{13}
20 км сильный позёмок 10/0
[As trans]
-15.9 -19.3 75 -28 -28 1011.8 1008.0
06 22.01 В 9-13
{14}
20 км сильный позёмок 10/0
[As op]
-12.8 -18.0 65 -24 -24 1009.8 1006.0
09 22.01 В 8-12
{16}
2000 м снег {метель} 10/0
[As op]
-13.2 -16.7 75 -24 -24 1009.5 1005.7
12 22.01 ЮВ 9-13
{13}
2000 м снег {метель} 10/0
[As op]
-13.9 -16.6 80 -25 -25 1009.6 1005.8 -12.7 0.5
15 22.01 В 3
{13}
20 км слаб. снег {метель} 4/0
[Ac trans]
-14.6 -17.3 80 -21 -21 1009.7 1005.9
18 22.01 В 7 20 км позёмок {снег} 8/0
[Ac trans]
-15.8 -18.5 80 -26 -26 1010.0 1006.2
21 22.01 В 7 10 км слаб. снег {метель} 10/0
[Ac trans Cs]
-16.2 -18.8 80 -27 -27 1010.5 1006.7
00 23.01 В 4 10 км слаб. снег {метель} 10/0
[Ac trans Cs]
-19.5 -22.1 80 -28 -28 1013.6 1009.7 -19.7 0.3 33
03 23.01 ЮВ 4 10 км слаб. снег {метель} 10/0
[Ac trans Cs]
-18.0 -20.6 80 -26 -26 1014.0 1010.1
06 23.01 ЮВ 5 4000 м слаб. снег {метель} 10/0
[Ac trans Cs]
-18.0 -20.6 80 -28 -28 1014.4 1010.5
09 23.01 ЮВ 5 20 км {снег} 6/0
[Ac trans Ci fib]
-20.5 -23.0 80 -31 -31 опасность
обморожения
1015.1 1011.2
12 23.01 ЮВ 5 20 км {снег} 3/0
[Ac trans]
-22.0 -24.5 80 -33 -33 опасность
обморожения
1015.5 1011.6 -17.8 0.5
15 23.01 ЮВ 4 20 км 3/0
[Ci fib]
-21.8 -24.3 80 -31 -31 опасность
обморожения
1016.5 1012.6
18 23.01 ЮВ 5 20 км 4/0
[Ci fib]
-22.0 -24.5 80 -33 -33 опасность
обморожения
1017.2 1013.3

 

Местоположение метеостанции Караул (Красноярский край, Россия): широта 70.08 долгота 83.17 высота над уровнем моря 29 м.

В архиве по умолчанию представлена погода в Карауле за последнюю неделю. Архивные данные за месяц целиком и за предыдущие месяцы, начиная с января 2011 года, Вы можете получить, выбрав интересующий диапазон дат из раскрывающегося списка и нажав кнопку "Ввод!".


*Определитесь, кто Вы:
робот инопланетянин человек

Внимание! Время в таблицах - всемирное. Для получения местного времени необходимо прибавить поправку, которая равна 7 ч.

Смотрите также архив погоды в соседних городах и на ближайших метеорологических станциях:

Погода в Гыде (Ямало-Ненецкий АО, Россия) (196 км)
Погода в Потапово (Красноярский край, Россия) (198 км)
Погода в Сопочной Карге (Красноярский край, Россия) (200 км)
Погода в Норильске (Красноярский край, Россия) (215 км)
Погода в Крестах Таймырских (Красноярский край, Россия) (265 км)
Погода в Антипаюте (Ямало-Ненецкий АО, Россия) (269 км)
Погода в Снежногорске (Красноярский край, Россия) (286 км)
Погода в Игарке (Красноярский край, Россия) (321 км)
Погода в Тазовском (Ямало-Ненецкий АО, Россия) (341 км)
Погода в Горбиачине (Красноярский край, Россия) (345 км)

Пояснения к столбцам:

Ветер - указаны скорость ветра в м/с - средняя за 10 мин, порывы в срок и между сроками (в фигурных скобках) и направление, откуда дует ветер: С - северный, СВ - северо-восточный, В - восточный, ЮВ - юго-восточный, Ю - южный, ЮЗ - юго-западный, З - западный, СЗ - северо-западный.
Видимость - горизонтальная дальность видимости в метрах или километрах. При видимости от 1 до 10 км при отсутствии осадков обычно наблюдается дымка, при ухудшении видимости до 1 км и менее - туман. В сухую погоду видимость может ухудшаться дымом, пылью или мглою.
Явления - указаны атмосферные явления, наблюдавшиеся в срок или в последний час перед сроком; фигурными скобками обозначены явления, наблюдавшиеся между сроками (за 1-3 часа до срока); квадратными скобками обозначены град или гололедные отложения с указанием их диаметра в мм.
Облачность - указаны через наклонную черту общая и нижняя облачность в баллах и высота нижней границы облаков в метрах; квадратными скобками обозначены формы облаков: Ci - перистые, Cs - перисто-слоистые, Cc - перисто-кучевые, Ac - высококучевые, As - высокослоистые, Sc - слоисто-кучевые, Ns - слоисто-дождевые, Cu - кучевые, Cb - кучево-дождевые. Подробнее классификацию облаков см. в Атласе облаков (PDF).
T - Температура воздуха - температура, измеренная на высоте 2 м над землей.
Td - Температура точки росы - температура, при понижении до которой содержащийся в воздухе водяной пар достигнет насыщения.
f - Относительная влажность воздуха - влажноcть воздуха, измеренная на высоте 2 м над землей.
Te - Эффективная температура - температура, которую ощущает одетый по сезону человек в тени. Характеристика душности погоды. При расчете учитывается влияние влажности воздуха и скорости ветра на теплоощущения человека.
Tes - Эффективная температура на солнце - температура, которую ощущает человек, с поправкой на солнечный нагрев. Характеристика знойности погоды. Зависит от высоты солнца над горизонтом, облачности и скорости ветра. Ночью, в пасмурную погоду, а также при ветре 12 м/с и более поправка равна нулю.
P - Атмосферное давление - приведенное к уровню моря атмосферное давление.
Po - Атмосферное давление - измеренное на уровне метеостанции атмосферное давление.
Tmin - Минимальная температура - минимум температуры воздуха на высоте 2 м над землей.
Tmax - Максимальная температура - максимум температуры воздуха на высоте 2 м над землей.
R - Количество осадков - Количество выпавших осадков за период времени, мм. При наведении курсора мыши на число - период времени, за который выпало указанное количество осадков.
R24 - Количество осадков - Количество выпавших осадков за 24 часа, мм.
S - Снежный покров - Высота снежного покрова, см. При наведении курсора мыши на число - состояние снежного покрова и степень покрытия местности в баллах.